GFSSE_sfc_rhum_000.txt.gz
RH
96 94 91 91 90 90 90 91 91 89 86 84 83 80 78 78 79 82 84 83 80 74 72 75 76 77 79 82 81 81 83 87 86 77 79 73 64 63 71 79 78 71 77
94 90 93 91 90 90 90 90 90 88 86 83 84 81 80 79 78 77 79 79 78 73 71 73 76 77 77 79 80 82 83 87 85 83 76 67 62 62 66 77 78 72 76
93 88 86 92 91 91 91 90 89 88 85 82 82 82 81 79 77 78 80 81 76 72 68 68 69 71 76 80 82 83 83 86 86 84 79 81 79 66 65 73 77 77 77
88 89 86 93 92 92 92 91 89 86 84 84 84 83 81 78 77 78 79 81 73 69 67 68 71 75 79 82 83 83 82 84 87 85 82 86 77 75 63 71 73 71 75
92 89 90 94 94 93 93 93 93 92 92 90 85 80 79 77 77 76 76 73 69 67 66 66 68 74 81 84 85 85 85 86 87 82 89 91 85 65 67 71 73 76 81
94 96 95 95 95 94 95 94 94 94 93 88 84 81 79 77 76 76 75 71 67 66 65 66 67 69 76 80 80 80 82 84 87 93 92 88 86 73 68 72 80 79 82
85 94 97 97 96 95 94 94 94 94 93 90 89 85 80 78 77 77 76 72 70 68 68 68 69 69 72 75 76 79 84 84 87 93 93 94 87 70 66 74 74 80 79
84 88 93 97 98 97 96 95 95 94 94 93 91 86 80 80 79 77 75 73 71 70 68 68 69 69 71 71 74 83 85 86 84 91 90 97 89 75 67 69 79 82 79
97 95 98 97 96 97 96 95 95 96 94 93 93 89 88 86 86 79 74 72 70 69 68 68 69 71 71 71 75 79 81 84 94 81 76 97 86 78 68 67 74 81 82
97 97 98 98 97 98 97 95 94 92 91 91 91 88 88 86 84 83 81 76 74 72 71 70 74 74 73 77 78 81 83 85 88 80 87 96 87 80 72 73 77 82 83
82 92 95 95 96 97 96 92 92 90 88 88 88 88 92 94 88 84 86 80 81 80 79 79 80 80 78 78 81 82 80 94 90 82 96 89 81 69 69 72 78 82 83
75 80 78 85 91 94 71 95 96 89 93 93 92 93 96 96 95 82 86 86 84 83 84 85 86 86 85 90 86 73 73 79 80 72 93 89 80 69 62 65 74 80 80
59 64 72 80 84 82 76 93 97 97 97 97 94 94 95 92 92 96 95 95 96 91 97 94 95 97 94 93 88 76 58 57 70 70 66 87 81 66 60 60 61 72 77
56 58 63 71 75 73 83 92 91 92 96 97 93 85 86 89 81 81 88 91 92 92 94 96 98 94 91 89 84 74 56 53 59 65 70 82 82 70 61 56 56 64 69
55 58 65 68 68 66 65 73 76 77 82 87 83 78 78 79 74 76 74 72 71 71 78 77 84 76 70 70 68 62 55 50 51 58 70 77 84 76 61 52 50 52 57
52 66 76 77 75 59 64 73 71 75 77 77 79 72 66 73 77 76 73 73 75 78 76 71 69 68 70 72 71 67 59 51 47 52 60 70 84 81 73 59 53 52 52
54 66 75 78 77 72 61 66 69 66 62 68 65 64 60 66 71 73 72 71 75 76 74 75 72 76 77 72 75 73 71 62 58 52 54 59 72 84 78 72 69 63 57
67 65 80 70 79 75 64 62 56 59 64 63 68 64 60 60 65 68 65 65 72 72 73 72 75 74 74 78 80 75 74 69 64 60 59 58 59 60 74 77 73 70 68
67 73 76 87 81 77 66 72 67 68 66 59 59 54 58 58 57 58 58 60 63 68 70 71 70 79 77 70 59 57 66 73 74 63 62 58 65 61 62 66 76 74 73
77 82 81 84 82 75 56 66 67 71 64 60 52 52 52 53 55 57 58 64 67 66 65 66 66 67 72 78 48 56 68 69 72 79 82 67 70 72 70 60 66 72 80
58 61 73 71 67 49 65 67 79 62 58 54 55 58 58 58 59 63 67 70 70 66 68 66 70 73 68 74 71 55 65 62 69 76 81 80 75 70 66 66 69 74 77
63 66 67 63 59 61 72 77 69 64 63 59 61 54 60 67 57 54 67 68 72 69 69 72 76 75 77 76 77 86 64 54 65 69 79 72 88 81 71 67 71 76 78
52 54 50 50 52 61 65 59 63 62 62 65 60 62 60 60 59 60 64 70 72 73 75 75 77 79 85 85 88 86 91 93 94 79 72 66 79 82 89 91 68 56 74
56 52 47 45 45 48 52 57 62 69 68 72 72 69 60 61 61 58 61 70 74 76 75 79 76 88 86 92 90 76 86 86 82 80 76 64 71 68 87 94 80 71 80
55 54 51 47 47 48 49 55 66 61 64 70 72 63 60 63 62 61 67 72 72 75 78 81 87 87 91 91 94 93 90 89 80 86 81 81 67 75 81 90 88 88 76
55 52 48 43 44 50 52 54 60 58 62 69 63 62 63 67 66 69 65 73 74 81 82 86 84 89 90 92 93 92 95 94 94 94 85 93 80 74 79 86 92 92 87

GFSSE_sfc_rhum_003.txt.gz
RH
96 96 91 91 91 92 93 91 90 87 85 81 79 77 77 77 77 79 82 82 79 73 73 75 75 75 76 77 81 82 83 85 84 78 76 70 64 61 69 78 74 73 76
94 94 94 92 91 91 92 91 90 87 85 80 80 79 79 77 76 77 78 77 74 69 67 70 72 74 76 79 81 81 82 86 85 83 75 68 69 67 64 76 77 76 77
94 92 90 93 91 91 91 90 89 87 81 81 80 80 79 77 77 79 79 76 70 65 64 65 67 69 72 77 81 83 83 84 86 86 81 90 84 72 67 76 76 76 76
92 92 91 94 94 92 91 91 89 84 82 82 82 82 79 77 77 76 76 76 69 66 64 64 66 70 75 80 83 84 83 84 86 86 91 88 82 76 68 63 71 69 74
95 93 94 96 95 94 93 92 91 91 90 87 85 81 78 77 75 73 73 70 66 65 64 64 66 70 75 79 80 79 79 81 86 88 94 93 93 78 68 66 72 74 80
99 97 96 96 96 95 95 94 94 95 92 88 86 80 77 75 73 72 72 68 66 65 65 64 66 69 72 75 76 75 77 79 86 95 96 95 93 80 72 73 81 82 81
98 98 97 98 97 95 94 94 95 94 90 90 88 83 79 76 75 74 72 69 68 66 66 65 67 69 70 72 73 74 79 83 90 94 94 96 97 84 74 72 76 78 81
90 93 97 97 96 96 95 95 96 95 94 93 91 85 80 79 78 75 71 69 69 68 68 68 70 70 71 70 71 79 81 82 87 89 83 97 93 86 79 69 78 83 82
80 85 92 91 98 98 97 96 95 93 94 94 92 90 87 86 84 77 70 69 68 68 69 70 72 73 72 72 76 81 84 86 93 87 75 92 88 82 75 73 76 79 80
87 88 94 100 99 98 98 96 95 94 93 94 93 90 88 85 84 83 82 76 73 72 72 73 76 76 75 78 80 83 82 82 89 86 92 97 86 76 66 72 77 83 83
98 99 99 99 98 98 97 94 93 91 90 91 90 88 91 94 92 89 87 84 80 81 79 79 80 82 81 81 82 83 77 80 85 82 86 87 86 76 68 67 75 80 82
96 96 97 97 97 97 83 96 96 92 95 95 94 93 95 94 95 89 88 86 87 86 85 86 86 87 89 96 91 82 74 62 70 71 78 81 79 72 69 64 70 69 77
78 82 85 91 95 95 86 98 99 98 98 97 93 94 95 94 97 96 98 96 96 92 97 95 95 97 94 96 96 90 77 60 65 65 68 76 78 73 66 59 62 62 68
75 72 74 85 89 90 92 92 92 95 98 98 97 94 96 95 92 90 93 90 88 89 87 95 98 95 94 92 94 91 82 66 60 62 70 77 79 72 60 55 54 55 65
65 66 72 84 80 78 87 92 93 94 94 94 95 90 89 88 79 80 78 78 77 79 79 77 78 75 71 71 74 74 70 64 58 58 66 72 79 75 62 57 54 53 55
56 61 71 76 78 72 76 87 88 88 91 93 91 86 77 80 80 80 77 74 76 82 82 80 78 77 79 80 73 74 75 72 63 57 57 65 73 79 77 64 57 55 54
55 60 75 81 84 78 74 77 81 86 78 86 74 65 66 75 76 71 70 68 71 77 73 74 76 78 73 70 70 73 73 70 70 66 63 60 66 72 81 81 75 70 66
67 69 80 84 90 90 86 90 88 83 75 74 73 75 68 62 63 68 62 62 68 74 74 70 75 64 70 76 74 68 67 72 70 66 74 72 72 67 71 74 78 77 76
78 76 86 91 92 95 90 83 86 78 70 66 65 67 60 57 56 62 63 70 74 71 72 72 67 71 74 72 60 62 67 71 74 72 78 76 75 70 66 65 72 74 73
80 82 89 89 92 85 77 80 74 82 79 79 66 58 58 59 63 66 71 74 73 68 68 68 67 71 73 78 56 56 65 62 72 90 85 71 73 73 68 67 69 72 75
74 76 84 80 77 75 85 81 84 84 77 75 63 67 66 62 58 67 70 70 70 67 70 71 75 74 68 79 72 56 61 56 64 84 88 89 76 72 64 65 66 60 63
68 67 72 72 66 69 79 82 88 84 78 70 60 58 60 63 61 57 68 70 72 71 71 74 77 78 81 88 89 91 83 67 80 70 79 74 84 86 78 66 66 51 48
52 54 51 55 59 62 75 79 70 67 68 64 65 67 61 64 61 64 70 74 76 77 79 82 86 87 90 89 91 92 95 96 95 81 67 75 82 81 87 87 76 58 58
54 51 48 47 48 50 54 58 58 61 62 72 76 65 62 67 66 66 70 74 78 82 84 86 85 94 94 97 94 78 89 92 96 90 79 63 77 68 86 91 87 78 77
56 52 51 48 46 49 52 59 67 65 67 78 70 62 62 70 72 68 70 68 75 83 84 83 87 86 89 91 94 96 93 94 91 94 92 80 75 76 71 93 88 91 85
57 56 52 49 50 52 54 58 66 62 72 64 60 61 62 68 72 70 67 75 81 82 81 82 81 79 86 89 92 88 93 87 90 92 92 82 87 77 83 84 92 91 89

GFSSE_sfc_rhum_006.txt.gz
RH
97 94 89 92 92 91 90 88 87 86 84 81 79 77 76 76 77 78 80 81 77 71 70 71 72 72 73 75 77 80 82 82 85 80 80 71 66 66 69 78 79 73 76
95 96 93 92 92 90 89 88 88 87 83 79 79 79 77 76 77 78 77 73 70 64 64 66 68 69 72 76 80 81 82 84 86 84 80 78 77 72 68 77 76 76 78
96 94 90 92 91 91 89 88 88 85 81 80 80 79 77 76 76 76 75 74 68 64 63 64 65 69 73 78 81 81 81 82 83 84 82 86 86 74 72 76 78 76 75
93 95 91 93 92 92 90 90 88 83 81 81 82 79 77 76 73 72 74 75 67 63 62 61 63 66 70 74 75 74 74 76 80 84 90 90 85 79 77 72 72 70 74
96 96 94 95 93 92 92 91 89 88 88 86 84 78 76 74 71 70 72 69 65 63 61 60 61 65 69 73 73 71 72 74 78 84 89 91 93 86 77 73 76 76 80
99 98 98 96 94 92 92 92 93 93 92 90 86 78 75 72 71 70 70 65 63 61 59 60 62 66 70 72 71 70 73 76 82 88 89 84 92 84 79 79 80 79 81
97 98 97 97 96 94 93 93 94 93 90 90 87 82 77 74 73 71 68 66 64 63 63 65 67 69 70 70 69 72 76 80 88 86 84 91 96 84 78 72 78 77 79
91 94 97 96 95 95 94 95 95 92 91 92 89 84 78 77 76 70 67 67 66 66 67 70 72 71 71 71 74 80 81 83 83 82 80 87 84 80 70 68 80 79 75
81 94 96 98 96 96 96 96 95 94 93 93 91 88 85 85 82 73 70 70 69 69 71 73 76 76 74 76 79 82 83 79 84 83 73 86 82 78 69 66 72 79 82
80 78 83 85 91 99 98 96 94 93 93 92 91 89 87 85 82 80 79 74 75 74 74 76 77 78 79 80 82 84 83 67 73 78 80 85 78 72 69 67 69 73 75
89 88 93 90 97 99 98 96 93 92 92 91 90 88 90 93 90 88 86 84 81 81 81 81 82 83 84 86 83 84 79 69 64 67 71 70 70 62 62 68 73 73 72
90 93 95 99 99 98 90 97 97 94 96 96 95 94 96 94 93 89 88 86 86 87 88 89 88 89 91 96 95 86 85 76 62 60 62 68 66 59 59 64 71 71 72
96 98 98 97 97 97 95 98 99 98 98 97 94 94 94 94 96 96 97 96 95 89 96 92 94 96 94 96 95 94 89 83 72 62 57 69 68 62 58 57 63 65 67
92 93 94 95 96 96 96 98 97 98 97 98 97 94 96 97 95 93 95 86 82 82 80 87 92 89 88 85 82 86 88 85 76 67 64 69 67 62 57 56 56 62 65
83 84 86 91 93 93 93 96 95 96 97 96 96 94 95 94 86 85 81 81 80 83 83 81 80 78 78 78 77 77 77 76 73 69 70 68 70 64 61 57 54 54 60
74 77 81 88 90 83 87 91 97 97 96 95 96 90 82 85 83 82 75 73 74 82 80 81 81 81 80 76 69 73 71 72 69 73 71 72 71 70 69 68 68 67 64
68 71 83 92 91 94 93 94 96 95 90 94 88 73 83 78 76 73 68 67 71 78 76 73 74 70 70 65 66 67 64 68 71 78 78 74 74 72 71 68 69 72 70
73 82 92 89 95 96 95 96 97 93 92 93 94 91 75 64 65 67 69 74 77 76 72 72 77 65 74 73 70 66 64 67 69 80 78 77 76 64 66 64 63 62 65
86 94 95 94 94 96 97 97 91 85 79 83 83 74 65 64 64 70 74 77 73 70 73 69 72 73 76 73 64 65 64 68 78 74 78 76 75 71 67 62 63 61 58
96 95 95 94 93 90 91 92 89 85 86 88 85 78 63 57 61 64 66 71 69 68 72 72 70 73 75 80 60 57 65 64 83 90 82 69 73 72 65 62 62 58 55
88 84 86 89 89 85 86 85 83 81 88 85 71 66 64 58 62 67 71 72 72 72 75 77 78 77 73 89 80 69 72 67 79 84 83 81 77 78 74 65 63 59 51
88 89 86 81 76 74 79 84 86 90 80 72 64 63 68 66 64 64 74 76 74 73 80 85 86 83 84 94 94 94 86 78 77 70 77 74 82 81 64 60 67 69 60
71 71 62 64 64 70 80 81 74 72 72 65 72 65 68 68 68 68 73 75 77 79 85 91 89 88 93 92 93 94 95 95 92 80 73 75 78 79 80 79 70 70 63
56 54 53 53 54 55 58 59 58 65 68 80 72 65 69 70 67 67 70 75 78 83 87 89 83 88 90 89 92 77 89 92 94 88 73 71 79 69 86 87 84 80 74
55 56 59 54 53 55 59 67 73 72 79 76 67 62 60 68 67 67 70 75 80 84 84 82 81 79 85 86 91 94 94 91 92 94 89 79 62 74 79 80 89 89 80
61 60 58 60 65 65 65 69 68 70 69 61 63 65 66 67 74 74 72 81 83 83 82 82 80 82 86 87 90 89 95 96 94 96 92 83 78 75 64 85 89 87 89

GFSSE_sfc_rhum_009.txt.gz
RH
75 69 90 87 89 88 88 87 86 85 84 83 82 78 77 77 77 78 78 78 74 66 65 65 67 69 72 76 79 80 80 82 83 82 80 77 74 70 69 74 74 46 76
74 70 93 88 89 88 87 87 86 86 84 80 79 78 77 76 77 76 72 73 70 63 63 64 66 69 71 75 78 78 78 80 82 83 80 67 68 73 74 76 80 58 75
74 71 70 87 89 88 86 87 87 85 81 80 80 78 76 75 75 74 72 74 68 62 61 61 62 62 65 69 70 68 69 71 77 79 76 52 52 77 74 78 78 75 72
77 72 66 87 90 89 88 89 87 83 80 81 80 77 75 73 71 72 72 74 65 60 58 56 57 60 65 68 68 69 69 72 73 70 46 53 55 76 75 74 73 73 72
78 73 70 89 91 90 91 90 88 87 87 86 82 76 74 71 69 70 70 70 61 56 54 55 56 61 67 70 71 70 70 73 74 52 43 55 60 68 76 73 69 71 77
78 77 87 94 92 92 91 91 91 92 92 90 84 77 73 70 69 68 67 62 58 57 59 60 63 65 68 72 72 71 73 77 68 40 47 55 61 78 74 75 79 76 80
77 74 75 95 93 92 92 93 93 93 92 90 86 82 76 73 70 67 66 63 62 63 64 66 67 68 70 72 72 73 74 79 45 40 43 53 59 76 67 68 76 79 76
78 76 75 92 93 94 94 94 94 92 91 90 88 83 77 76 73 68 68 66 66 68 70 71 71 71 71 72 74 79 80 78 39 36 42 43 71 72 69 68 76 81 78
78 81 81 75 84 96 96 95 94 91 92 91 89 86 83 82 78 72 71 71 69 70 75 75 75 77 75 78 80 84 83 68 36 35 34 32 70 66 65 67 70 72 72
83 80 79 79 76 78 79 96 95 93 92 91 88 86 83 81 78 78 76 73 74 76 76 77 80 81 82 84 84 85 84 65 38 34 31 32 70 61 57 63 68 67 67
84 81 82 80 81 86 81 83 90 91 91 90 83 85 81 60 62 62 77 82 81 82 83 84 84 86 88 82 83 86 81 43 44 35 32 60 64 59 58 61 72 73 67
82 82 86 86 87 88 76 78 76 69 64 66 64 70 64 72 68 68 76 86 84 85 86 86 86 87 78 52 50 63 45 53 47 45 38 66 63 58 56 63 68 69 70
73 78 82 87 86 86 74 73 69 68 69 69 74 72 72 72 71 66 64 60 64 70 52 55 56 53 62 57 51 54 51 48 45 42 46 69 68 63 58 55 62 66 68
82 79 83 83 83 83 71 71 70 65 68 67 69 74 75 68 70 65 54 54 59 54 57 54 50 60 57 55 53 53 51 42 34 35 42 71 71 68 66 66 65 63 66
70 71 75 77 78 77 76 73 72 74 74 77 74 77 70 64 65 58 59 53 52 49 49 49 49 49 49 47 48 44 41 40 39 34 38 75 74 71 70 69 69 70 70
60 62 71 75 72 69 73 79 86 87 87 90 93 89 80 77 67 58 51 47 48 49 47 46 49 45 43 42 42 44 40 38 40 43 36 46 67 67 64 63 63 65 67
54 60 78 81 76 77 81 82 84 90 93 90 87 86 78 70 65 57 51 53 55 50 46 45 44 43 40 35 38 36 34 40 37 50 44 41 41 61 63 62 60 59 58
52 64 76 81 81 86 87 91 92 92 88 86 82 77 55 51 56 55 49 51 47 45 42 44 42 38 40 39 38 33 36 35 45 53 46 43 41 38 49 60 60 58 57
62 74 82 84 89 92 95 95 88 75 63 63 73 62 59 57 55 52 48 52 50 45 47 43 43 44 41 38 29 30 31 28 48 43 48 49 51 46 41 50 54 53 57
84 85 87 86 88 90 92 80 74 61 60 59 60 56 50 43 49 48 48 52 45 42 44 42 46 42 45 46 27 30 32 36 48 49 49 44 47 49 46 46 42 38 53
80 78 78 78 79 76 66 64 64 61 65 64 42 49 49 48 47 51 45 45 45 44 50 48 40 41 35 49 36 31 28 46 51 45 46 46 48 45 47 44 40 37 36
73 75 76 69 61 53 52 55 60 66 54 44 44 50 49 51 46 44 49 45 48 44 54 54 49 39 43 57 43 37 34 30 34 45 43 47 52 45 43 45 48 44 43
65 64 59 55 54 52 57 55 53 54 53 46 42 41 44 46 40 43 50 50 52 52 50 57 56 53 45 50 64 45 43 41 49 38 44 44 48 44 46 48 45 44 49
52 52 48 48 45 47 51 47 52 45 46 52 44 42 42 49 47 44 48 54 57 56 61 58 52 56 52 47 44 47 54 56 49 46 35 38 43 38 46 50 41 46 48
48 50 51 50 48 50 52 54 49 53 52 45 46 50 52 52 53 50 52 58 61 56 62 60 56 51 45 43 43 45 47 42 45 47 41 36 32 31 36 37 45 40 42
49 55 52 46 46 49 51 54 56 54 49 46 50 52 51 51 51 55 54 60 62 60 57 54 56 54 48 45 40 42 38 39 37 47 44 40 37 31 30 36 41 37 35